Weather History for Key West, FL

Change the Weather History Date:

Saturday, August 30, 2014

  Actual Average Record
Temperature  
Mean Temperature 88 °F 84 °F  
Max Temperature 91 °F 89 °F 94 °F (1878)
Min Temperature 85 °F 79 °F 70 °F (1960)
Degree Days  
Heating Degree Days 0 0  
Month to date heating degree days 0 0  
Since 1 June heating degree days 0 0  
Since 1 July heating degree days 0 0  
Cooling Degree Days 23 19  
Month to date cooling degree days 654 587  
Year to date cooling degree days 3501 3172  
Since 1 June cooling degree days 1879 1742  
Growing Degree Days 38 (Base 50)    
Moisture  
Dew Point 75 °F    
Average Humidity 65    
Maximum Humidity 70    
Minimum Humidity 60    
Precipitation  
Precipitation 0.00 in 0.20 in 3.76 in (1891)
Month to date precipitation 3.16 5.18  
Year to date precipitation 21.25 23.47  
Snow  
Snow 0.00 in - - ()
Month to date snowfall 0.0  
Since 1 June snowfall 0.0  
Since 1 July snowfall 0.0  
Snow Depth 0.00 in    
Sea Level Pressure  
Sea Level Pressure 30.05 in    
Wind  
Wind Speed 18 mph (ESE)    
Max Wind Speed 24 mph    
Max Gust Speed 29 mph    
Visibility 10 miles    
Events      
T = Trace of Precipitation, MM = Missing Value Source: NWS Daily Summary

Daily Weather History Graph

Daily Weather History Graph

Search for Another Location

Airport:

Trip Planner

Search our weather history database for the weather conditions in past years. The results will help you decide how hot, cold, wet, or windy it might be!

Date:

Astronomy

Aug. 30, 2014 Rise Set
Actual Time 7:07 AM EDT 7:47 PM EDT
Civil Twilight 6:44 AM EDT 8:10 PM EDT
Nautical Twilight 6:17 AM EDT 8:37 PM EDT
Astronomical Twilight 5:49 AM EDT 9:05 PM EDT
Moon 11:20 AM EDT (8/30) 10:56 PM EDT (8/30)
Length of Visible Light 13h 26m
Length of Day
12h 39m
Waxing Crescent, 23% of the Moon is Illuminated
Aug 30
Waxing Crescent
Sep 2
First Quarter
Sep 8
Full
Sep 15
Last Quarter
Sep 24
New

Hourly Weather History & Observations

Time (EDT) Temp. Heat Index Dew Point Humidity Pressure Visibility Wind Dir Wind Speed Gust Speed Precip Events Conditions
12:53 AM 87.1 °F 96.3 °F 75.0 °F 67% 30.08 in 10.0 mi East 16.1 mph - N/A   Clear
1:53 AM 86.0 °F 96.0 °F 75.9 °F 72% 30.07 in 10.0 mi East 17.3 mph 23.0 mph N/A   Clear
2:53 AM 86.0 °F 96.0 °F 75.9 °F 72% 30.06 in 10.0 mi ESE 17.3 mph - N/A   Clear
3:53 AM 86.0 °F 93.4 °F 73.4 °F 66% 30.03 in 10.0 mi ESE 15.0 mph 21.9 mph N/A   Clear
4:53 AM 86.0 °F 95.1 °F 75.0 °F 70% 30.04 in 10.0 mi ESE 15.0 mph - N/A   Clear
5:53 AM 86.0 °F 95.1 °F 75.0 °F 70% 30.04 in 10.0 mi ESE 15.0 mph - N/A   Clear
6:53 AM 86.0 °F 93.8 °F 73.9 °F 67% 30.05 in 10.0 mi ESE 15.0 mph - N/A   Clear
7:53 AM 86.0 °F 95.1 °F 75.0 °F 70% 30.06 in 10.0 mi ESE 13.8 mph - N/A   Clear
8:53 AM 87.1 °F 96.3 °F 75.0 °F 67% 30.07 in 10.0 mi ESE 16.1 mph - N/A   Partly Cloudy
9:53 AM 88.0 °F 98.5 °F 75.9 °F 67% 30.07 in 10.0 mi East 16.1 mph 23.0 mph N/A   Partly Cloudy
10:53 AM 89.1 °F 100.2 °F 75.9 °F 65% 30.08 in 10.0 mi East 19.6 mph 25.3 mph N/A   Partly Cloudy
11:53 AM 90.0 °F 101.3 °F 75.9 °F 63% 30.09 in 10.0 mi East 18.4 mph - N/A   Clear
12:53 PM 90.0 °F 101.3 °F 75.9 °F 63% 30.07 in 10.0 mi ESE 19.6 mph 26.5 mph N/A   Partly Cloudy
1:53 PM 91.0 °F 102.9 °F 75.9 °F 61% 30.06 in 10.0 mi ESE 20.7 mph 26.5 mph N/A   Clear
2:53 PM 91.0 °F 101.6 °F 75.0 °F 59% 30.04 in 10.0 mi East 16.1 mph - N/A   Partly Cloudy
3:53 PM 90.0 °F 101.3 °F 75.9 °F 63% 30.02 in 10.0 mi East 16.1 mph - N/A   Partly Cloudy
4:53 PM 90.0 °F 101.3 °F 75.9 °F 63% 30.01 in 10.0 mi East 19.6 mph - N/A   Partly Cloudy
5:53 PM 89.1 °F 100.2 °F 75.9 °F 65% 30.00 in 10.0 mi East 19.6 mph 24.2 mph N/A   Partly Cloudy
6:53 PM 88.0 °F 97.5 °F 75.0 °F 65% 30.02 in 10.0 mi ESE 18.4 mph - N/A   Scattered Clouds
7:53 PM 87.1 °F 96.3 °F 75.0 °F 67% 30.03 in 10.0 mi East 17.3 mph - N/A   Partly Cloudy
8:53 PM 87.1 °F 96.3 °F 75.0 °F 67% 30.04 in 10.0 mi ESE 19.6 mph - N/A   Clear
9:53 PM 87.1 °F 96.3 °F 75.0 °F 67% 30.06 in 10.0 mi ESE 21.9 mph - N/A   Clear
10:53 PM 86.0 °F 93.4 °F 73.4 °F 66% 30.06 in 10.0 mi SE 18.4 mph 25.3 mph N/A   Clear
11:53 PM 86.0 °F 93.0 °F 73.0 °F 65% 30.08 in 10.0 mi SE 19.6 mph - N/A   Partly Cloudy